Vertical_Velocity
-0 2 -1 -3 -1 -3 -4 -2 -1 -1 -3 -2 -1 1 0 0 -0 4 -0 -4 -1 -0 -1 -2 2 -8 -4 3 4 -6 -8 -5 -1 6 12 1 2 2 10 9 18 9 7 1 -3 11 4 12 -2 5 -1 -2 -5 -8
0 3 1 -1 -2 -3 -3 -1 -1 -2 -2 -1 -0 0 -0 -1 2 -2 -2 -1 -2 -6 -4 -3 -6 -6 -3 -2 5 -2 -5 -1 2 7 5 6 8 8 7 3 13 13 4 -4 -15 27 -2 -3 -9 -7 -4 -4 -4 -6
-2 -2 -7 1 -0 -3 -2 -3 -1 -2 -2 -0 -1 -0 -1 2 -0 -0 -1 -4 -4 -2 -2 -0 -1 1 -2 -6 -3 -6 -4 -1 -2 3 12 10 6 20 22 16 12 -1 -3 -7 12 15 3 -4 -7 0 -4 3 -8 -4
2 -1 -0 1 -0 -1 -2 -1 -2 -1 -3 0 0 -2 -2 -1 -1 -1 -4 -4 -2 -0 -3 -4 -5 1 -3 -5 -3 -8 -4 -5 -5 -2 -1 3 12 12 -2 -3 -6 -3 1 2 2 11 -4 -4 -6 -1 1 0 -9 -9
1 -5 1 1 -0 -1 -3 -3 -1 1 -2 -1 -0 -0 2 1 -0 -2 -3 -2 -2 -2 -1 -1 1 1 -1 -3 -5 -1 -3 -4 -3 1 0 3 3 7 2 11 5 -0 -1 11 6 33 -17 -4 -3 4 -2 3 -6 -3
-0 6 0 -1 0 -0 -2 -2 -3 -2 -2 -0 -1 1 -0 1 -0 -1 -0 -0 -1 -2 13 0 -1 -3 -1 0 1 2 -0 5 5 0 1 2 -1 5 7 0 -1 1 -4 -16 8 22 -0 7 6 46 6 5 -0 -4
3 -3 1 0 -1 -2 -1 -1 -3 -1 -1 -1 -1 -1 -0 0 0 -2 -3 0 1 1 -2 -0 -1 0 0 1 3 3 1 3 2 9 9 5 7 5 3 3 -5 -3 2 5 9 5 3 2 5 -1 -10 5 5 5
-5 -2 -1 0 0 -1 -1 -0 -1 -2 -0 -1 -2 0 0 -1 0 1 -1 -1 0 1 0 0 -4 19 0 3 0 0 4 3 2 1 2 3 14 6 6 3 6 6 7 -7 0 12 5 -3 3 5 7 2 5 6
-4 0 -0 -1 0 0 0 -2 -2 -2 -1 -0 -2 -1 -1 -3 -1 -2 -1 -2 -1 -3 -2 -1 -0 29 -2 0 0 2 0 2 4 4 3 -0 3 1 2 4 4 5 5 5 3 5 0 5 3 -0 0 3 3 6
1 1 2 0 -1 -1 -1 -3 -2 -0 -1 -0 0 -0 -1 -2 -2 -6 3 3 1 -1 -1 2 2 -1 -1 1 2 -0 2 -1 -0 4 4 1 1 3 2 2 3 -1 -1 1 4 10 7 10 3 -10 -5 2 1 -2
2 -1 -0 -1 -1 -2 -2 -1 -0 -2 -3 -1 -0 -2 -1 -1 -1 0 1 1 -0 -1 -0 -1 1 2 3 3 3 1 1 2 4 -1 -2 1 5 2 1 0 1 3 1 -1 4 3 -3 -1 6 4 0 -6 -3 1
-5 1 -1 -2 -1 -3 -2 -0 -3 -2 -2 -2 -0 0 -2 -1 2 2 -2 -0 -2 -3 -2 1 1 -3 -2 0 -0 1 3 1 -3 2 1 -3 -5 -4 -2 -1 0 -0 -1 -2 -3 -3 1 1 -2 -0 -0 1 -0 0
-1 -1 -0 -1 -1 -3 -3 -2 -1 -2 -2 -2 -2 -2 -1 0 -1 3 3 1 -2 -1 -1 -3 -2 -1 -1 -2 0 -1 -1 -0 4 -0 1 2 0 -0 -1 -0 -3 -2 -1 -2 1 2 2 -4 -1 -2 3 3 2 0
0 -1 -0 -1 1 -4 -3 -1 1 -1 -2 -1 -1 -1 -0 -0 2 2 -1 -1 -2 -2 -0 -0 -1 -3 -2 -2 -2 -0 -1 3 1 1 1 -1 -2 1 2 0 1 -3 0 1 -0 -2 -4 -4 -5 -1 -2 -4 -3 -0
-1 0 0 -0 0 -3 -0 -1 0 -1 -3 -1 -1 -4 -3 -1 -0 -2 -0 -1 -1 -0 -4 -4 -1 -1 -3 -2 -2 -0 -3 -3 -0 0 0 1 3 -1 -4 -1 -1 1 -1 -2 1 1 1 -2 -1 -2 -5 -3 -2 -2
-0 0 0 2 -1 -3 -0 1 0 -2 -2 -1 -2 -2 -1 -1 -1 -2 -1 -2 -2 -3 -2 -2 -3 -3 0 -1 -2 -2 -3 -2 -2 -2 -0 1 0 2 1 -1 -4 -4 -1 -1 -1 -1 -2 -2 -2 -4 -4 -4 -5 -5
-1 -0 2 0 -2 -1 -0 2 1 -1 -2 -1 -1 -1 -2 -2 -3 -2 -1 -2 -1 -1 -1 -1 -1 -3 -4 -1 -1 -1 -1 -2 -1 3 3 1 4 3 1 -1 -2 -2 -1 -1 -3 -2 -0 0 -0 1 -3 -5 -0 -3
-2 -0 1 -1 -1 -1 1 1 0 -1 0 1 0 -2 0 -1 -3 -2 2 2 -1 -2 1 -1 -2 -1 -2 -2 -4 -1 -4 -2 -2 -2 -1 2 3 3 1 1 1 0 -0 1 -4 -4 -1 0 3 -2 -2 1 -3 -4
-1 -0 -1 -2 -2 -1 -1 2 1 0 -1 0 0 2 1 0 1 7 0 -2 -2 -3 -2 2 -3 -2 -4 -2 1 -6 -2 -2 1 -0 -2 -0 2 3 4 2 0 -0 1 3 -3 -7 -3 0 2 -2 -1 -1 3 0
-1 -1 -1 -1 -1 -0 1 0 1 -2 0 -1 -0 -1 0 -1 2 2 3 4 -0 1 7 24 19 -0 -2 9 10 0 -5 -7 -1 1 -7 -9 -7 -5 -4 -1 1 -1 -1 3 -2 -3 1 -2 -0 -3 -2 -1 -1 0
-1 -0 -1 -1 -1 1 0 -2 -1 0 -3 -1 3 2 2 7 4 -3 -1 5 8 10 11 2 9 12 16 10 11 3 -4 -6 1 1 1 2 1 -1 -3 -1 -0 1 0 3 0 -0 1 -2 -2 -3 -4 -4 -0 0
-1 -1 -1 -0 0 -1 0 -2 -0 1 -2 -5 -2 -0 3 -3 -1 1 -1 0 -5 -2 0 1 6 23 31 22 7 0 2 1 -1 -3 -1 -0 -1 -1 -2 -0 1 -1 -2 0 2 1 0 -2 1 -2 -1 -2 2 0
-1 -1 -0 -0 0 1 -1 -1 -3 -2 -2 -0 -1 -1 1 -1 -2 -1 -1 -3 2 4 2 -2 0 -0 -2 -4 -6 -2 3 1 -1 -2 -3 -2 -2 -1 1 1 2 3 2 -0 -1 3 1 -2 1 -2 -2 -1 3 1
-1 -1 -1 -0 1 -0 -2 -1 -1 1 2 -5 -8 -2 -3 -4 -3 -4 -5 -3 -4 -3 -2 1 1 -2 -4 -4 -2 -1 -2 -2 0 -1 -3 -4 -3 -3 -4 -2 0 2 1 -0 -0 -1 -1 -1 -1 -2 -3 -2 0 1
-1 -1 0 0 0 -1 -3 -1 -0 -3 -3 -2 -1 -1 -4 -4 0 0 -2 -3 -3 -2 -3 -1 -3 -4 -0 3 2 2 2 1 -0 -0 -2 -3 -4 -2 -3 -3 -2 -0 1 -1 0 3 2 1 0 -1 -1 -3 -2 2
-1 -0 -1 0 1 -3 -0 3 -1 -2 -1 -3 -3 -2 -2 -2 -1 -3 -3 -2 0 1 0 -0 -1 2 -0 1 -0 2 1 -1 2 3 6 3 -0 -1 -1 -3 -2 -1 0 1 2 2 0 -1 -1 -1 1 -1 -0 -0
-0 -2 -3 -0 -1 -0 0 4 6 -0 0 -2 -3 0 -1 -3 -4 -5 -5 -4 -1 0 0 1 -0 2 3 7 5 -1 -1 3 3 -0 -0 3 4 1 1 3 4 0 -3 -3 -2 2 2 0 -2 -2 -1 -1 0 -1
-1 -3 -0 0 -1 9 11 4 2 6 -1 -2 2 -4 -3 -1 -1 -3 -3 -0 0 0 1 1 2 3 4 3 1 -0 1 -1 -3 1 1 -3 2 3 0 2 5 2 -1 -1 -1 -1 1 0 -1 -1 -1 0 1 0
0 1 2 -2 -4 -1 7 -3 -0 -1 0 -0 -2 -1 -3 -3 -2 -2 -4 -2 -1 -3 2 2 2 4 6 5 2 -2 -2 -1 -2 -2 -1 -1 1 0 2 3 2 6 -3 2 0 -1 -1 -1 -1 -0 -0 0 -0 -0
-3 2 1 -3 -2 2 0 -0 0 2 1 -0 -0 2 -0 -1 -3 -1 -4 -2 -2 -3 1 5 3 -0 -2 -3 -4 -5 -5 -4 -4 -3 -3 -3 -2 -0 1 3 0 -1 -1 -1 -2 -1 -0 -0 -0 -2 -1 -0 -1 -1
-1 1 -2 7 3 -1 1 -1 0 1 0 -0 1 2 -0 -1 -0 2 3 2 0 0 1 -3 -4 -3 -3 -3 -1 -1 -2 -2 1 3 1 -0 -1 -3 -3 -3 -2 -2 -5 -3 -1 -1 -3 -2 -1 -0 -0 -1 -0 -1
-1 0 -1 -1 -1 1 2 0 -0 -2 -2 -1 -1 -0 -1 4 3 4 1 -0 -2 -1 -1 -0 0 -1 -1 0 2 1 1 -0 -1 -1 -0 -0 -1 -1 -1 -2 -4 -5 -5 -4 -2 -3 -2 -1 -2 -1 -2 -2 -1 -2
-1 -1 -1 -2 -1 1 1 0 -2 1 -1 -1 -1 -2 -0 -1 -3 -3 0 -0 -1 -1 1 0 -1 -2 -1 0 1 -2 -5 -4 -2 -1 -3 -2 -1 -1 -0 -0 -1 -1 -2 -3 -4 -4 -5 -5 -3 -2 -1 -1 -1 -1
Height
5774 5769 5763 5757 5750 5744 5738 5731 5726 5720 5714 5708 5703 5699 5695 5691 5687 5683 5677 5671 5665 5657 5648 5638 5627 5617 5607 5596 5589 5588 5586 5584 5577 5571 5566 5562 5559 5557 5558 5564 5574 5587 5595 5605 5616 5626 5636 5643 5654 5669 5677 5687 5701 5717
5773 5768 5762 5756 5750 5745 5739 5734 5728 5722 5717 5712 5707 5702 5698 5694 5690 5685 5679 5672 5666 5658 5650 5641 5632 5623 5613 5603 5593 5592 5592 5590 5586 5582 5577 5572 5569 5570 5572 5575 5583 5594 5599 5606 5615 5618 5630 5636 5648 5661 5673 5685 5698 5712
5771 5767 5761 5756 5750 5744 5739 5735 5729 5724 5719 5715 5710 5705 5701 5698 5693 5687 5681 5675 5669 5662 5654 5647 5639 5629 5620 5612 5601 5600 5600 5598 5595 5592 5590 5586 5583 5583 5584 5588 5591 5596 5599 5606 5615 5616 5629 5637 5648 5661 5673 5682 5694 5705
5770 5765 5760 5754 5749 5744 5739 5734 5730 5726 5721 5716 5712 5708 5704 5700 5694 5689 5683 5677 5672 5666 5659 5652 5644 5637 5630 5622 5617 5613 5610 5606 5603 5600 5597 5593 5592 5592 5593 5597 5600 5602 5604 5608 5611 5618 5629 5638 5649 5660 5672 5680 5690 5701
5768 5764 5759 5754 5748 5743 5739 5734 5729 5726 5722 5717 5713 5709 5705 5701 5696 5690 5684 5679 5674 5669 5662 5657 5651 5645 5638 5632 5628 5624 5617 5614 5610 5606 5602 5601 5600 5601 5600 5599 5600 5604 5608 5611 5615 5614 5629 5641 5651 5658 5668 5676 5687 5695
5766 5762 5758 5753 5747 5743 5739 5735 5731 5726 5722 5718 5714 5710 5705 5701 5696 5692 5686 5680 5676 5671 5665 5659 5655 5649 5644 5639 5635 5632 5628 5622 5618 5614 5611 5607 5606 5607 5604 5605 5606 5606 5613 5619 5619 5621 5632 5640 5648 5650 5662 5673 5681 5689
5763 5760 5756 5752 5748 5744 5740 5736 5731 5726 5722 5718 5713 5709 5705 5701 5697 5692 5687 5682 5676 5672 5667 5662 5658 5653 5649 5645 5640 5635 5632 5630 5627 5624 5620 5616 5613 5610 5609 5608 5611 5613 5615 5619 5622 5624 5632 5638 5644 5651 5660 5667 5675 5679
5762 5758 5754 5751 5748 5744 5740 5736 5731 5726 5722 5718 5713 5709 5705 5701 5697 5693 5688 5682 5677 5672 5668 5664 5661 5658 5654 5649 5644 5640 5636 5633 5630 5626 5624 5621 5620 5615 5612 5611 5611 5614 5618 5622 5623 5625 5632 5636 5640 5646 5653 5660 5667 5673
5759 5756 5752 5750 5746 5743 5740 5735 5731 5726 5722 5718 5714 5710 5707 5703 5699 5695 5690 5684 5679 5675 5669 5665 5662 5659 5656 5652 5648 5644 5640 5636 5633 5631 5627 5625 5623 5620 5618 5615 5615 5615 5616 5616 5620 5622 5624 5631 5634 5640 5645 5652 5658 5664
5756 5753 5750 5748 5745 5742 5739 5735 5731 5727 5723 5719 5716 5712 5708 5704 5700 5695 5692 5688 5683 5678 5673 5669 5664 5661 5658 5654 5650 5647 5643 5639 5635 5632 5629 5627 5624 5622 5622 5622 5619 5619 5618 5618 5619 5619 5620 5624 5629 5633 5637 5642 5648 5652
5754 5751 5748 5746 5743 5740 5738 5735 5731 5727 5723 5720 5716 5712 5708 5704 5701 5697 5694 5690 5685 5681 5676 5671 5668 5664 5660 5657 5653 5649 5646 5643 5640 5636 5632 5628 5626 5624 5621 5619 5619 5620 5620 5619 5618 5617 5616 5617 5619 5624 5627 5631 5636 5640
5751 5749 5746 5745 5742 5739 5737 5734 5731 5728 5724 5720 5716 5712 5707 5704 5701 5698 5693 5690 5685 5681 5677 5673 5670 5666 5662 5658 5654 5651 5648 5645 5642 5639 5636 5631 5628 5625 5622 5618 5615 5613 5613 5613 5614 5614 5615 5615 5614 5615 5617 5619 5623 5625
5749 5747 5745 5743 5741 5739 5736 5734 5731 5727 5723 5719 5715 5711 5707 5704 5700 5696 5693 5689 5685 5681 5677 5673 5669 5666 5662 5659 5655 5652 5649 5646 5643 5640 5638 5634 5630 5627 5624 5620 5615 5612 5608 5605 5603 5603 5605 5605 5606 5606 5607 5609 5609 5611
5747 5746 5743 5742 5741 5738 5736 5734 5730 5726 5722 5718 5714 5710 5706 5702 5698 5695 5691 5688 5684 5680 5676 5672 5669 5665 5661 5658 5655 5652 5650 5646 5643 5639 5636 5633 5630 5627 5624 5621 5617 5613 5610 5607 5603 5600 5599 5599 5598 5600 5601 5602 5603 5603
5746 5744 5742 5741 5740 5737 5735 5733 5730 5726 5721 5717 5713 5708 5704 5700 5697 5693 5689 5686 5683 5679 5676 5672 5669 5665 5661 5657 5654 5651 5648 5645 5641 5637 5633 5629 5626 5623 5619 5617 5614 5611 5607 5605 5602 5600 5597 5596 5597 5596 5595 5596 5596 5595
5744 5743 5741 5740 5738 5736 5734 5731 5728 5724 5720 5717 5712 5708 5704 5699 5695 5692 5688 5685 5680 5677 5673 5671 5667 5663 5660 5656 5652 5649 5646 5642 5638 5635 5630 5626 5621 5617 5613 5610 5607 5605 5602 5599 5596 5594 5592 5589 5587 5588 5587 5586 5585 5583
5742 5740 5739 5738 5736 5734 5732 5730 5726 5722 5718 5714 5710 5706 5702 5698 5694 5691 5687 5682 5679 5675 5671 5667 5663 5659 5656 5653 5649 5645 5642 5639 5635 5629 5624 5620 5616 5612 5607 5603 5599 5596 5593 5591 5589 5586 5585 5583 5581 5579 5578 5577 5577 5576
5739 5738 5737 5736 5734 5732 5730 5727 5724 5719 5715 5712 5708 5705 5701 5697 5692 5687 5683 5679 5676 5672 5667 5664 5660 5656 5652 5647 5643 5639 5635 5631 5626 5621 5615 5611 5607 5603 5599 5594 5590 5587 5584 5582 5579 5578 5576 5575 5573 5571 5571 5571 5570 5569
5737 5736 5735 5734 5732 5730 5728 5726 5722 5718 5714 5709 5706 5701 5698 5694 5690 5686 5681 5677 5672 5667 5663 5657 5653 5649 5645 5640 5635 5631 5627 5622 5616 5611 5605 5601 5597 5594 5590 5586 5581 5578 5575 5573 5570 5568 5568 5566 5565 5563 5562 5563 5564 5563
5734 5734 5734 5732 5730 5728 5726 5724 5720 5715 5712 5707 5703 5700 5696 5691 5686 5683 5679 5674 5668 5662 5657 5652 5646 5642 5639 5633 5628 5624 5617 5612 5606 5601 5597 5593 5588 5583 5580 5578 5574 5570 5567 5565 5562 5559 5558 5557 5556 5555 5554 5554 5555 5556
5733 5732 5731 5730 5728 5726 5724 5721 5717 5714 5709 5705 5702 5698 5693 5688 5684 5679 5674 5668 5663 5657 5650 5646 5641 5634 5631 5626 5619 5612 5607 5604 5599 5595 5592 5587 5582 5578 5574 5570 5567 5564 5561 5558 5555 5552 5550 5548 5546 5546 5546 5546 5546 5548
5731 5730 5729 5727 5726 5723 5721 5719 5715 5711 5707 5704 5701 5697 5692 5688 5682 5676 5670 5663 5657 5654 5648 5643 5637 5633 5623 5616 5611 5609 5604 5600 5594 5589 5584 5579 5574 5569 5565 5561 5558 5555 5552 5550 5548 5546 5543 5541 5540 5538 5538 5538 5539 5539
5729 5728 5727 5725 5724 5721 5719 5716 5713 5710 5706 5703 5699 5694 5686 5683 5679 5672 5666 5660 5654 5649 5643 5637 5631 5626 5620 5615 5610 5606 5601 5594 5588 5582 5576 5570 5564 5560 5555 5552 5548 5545 5543 5540 5538 5537 5536 5534 5533 5531 5531 5531 5531 5531
5728 5727 5725 5723 5721 5719 5717 5714 5712 5709 5706 5702 5697 5692 5687 5682 5676 5669 5663 5657 5651 5644 5638 5632 5627 5621 5616 5611 5606 5600 5594 5588 5582 5575 5568 5562 5556 5550 5546 5542 5539 5536 5533 5531 5529 5528 5527 5526 5525 5525 5524 5524 5524 5525
5728 5727 5725 5722 5720 5718 5715 5713 5710 5707 5703 5699 5696 5692 5686 5680 5673 5667 5660 5653 5646 5639 5633 5628 5623 5618 5613 5607 5601 5595 5588 5581 5574 5568 5562 5555 5549 5544 5539 5534 5530 5527 5524 5522 5521 5520 5519 5518 5517 5517 5517 5517 5518 5519
5727 5726 5724 5721 5719 5717 5715 5712 5709 5705 5701 5698 5694 5689 5684 5677 5671 5664 5657 5650 5643 5637 5631 5626 5620 5615 5608 5602 5595 5589 5583 5576 5569 5563 5556 5550 5543 5538 5532 5527 5522 5519 5516 5514 5512 5511 5510 5509 5509 5510 5511 5511 5512 5513
5726 5725 5722 5720 5718 5716 5713 5711 5707 5704 5700 5697 5693 5687 5681 5674 5667 5661 5654 5647 5640 5634 5628 5624 5617 5611 5605 5599 5592 5584 5577 5572 5565 5558 5551 5544 5536 5529 5523 5518 5514 5509 5506 5503 5502 5502 5501 5501 5502 5503 5504 5506 5507 5507
5725 5723 5721 5719 5717 5715 5712 5709 5707 5704 5700 5696 5691 5685 5679 5672 5667 5660 5653 5645 5638 5632 5627 5622 5615 5609 5601 5594 5588 5582 5576 5569 5563 5556 5548 5538 5530 5522 5514 5508 5503 5499 5496 5494 5493 5493 5494 5495 5496 5498 5500 5501 5503 5503
5724 5722 5719 5717 5715 5713 5711 5708 5705 5703 5699 5694 5689 5683 5678 5672 5667 5659 5652 5644 5637 5631 5625 5619 5612 5605 5599 5594 5587 5581 5575 5569 5562 5555 5546 5537 5528 5519 5510 5503 5498 5496 5491 5490 5489 5489 5489 5491 5493 5495 5497 5499 5501 5502
5721 5719 5717 5716 5714 5712 5710 5707 5705 5702 5697 5692 5688 5683 5678 5672 5665 5658 5650 5643 5636 5630 5625 5618 5610 5603 5597 5591 5586 5581 5576 5570 5563 5556 5548 5539 5530 5522 5513 5505 5499 5494 5492 5490 5489 5489 5490 5492 5494 5496 5497 5499 5500 5501
5717 5716 5715 5714 5713 5711 5709 5706 5704 5700 5697 5692 5687 5683 5678 5672 5666 5658 5651 5644 5637 5631 5625 5617 5611 5605 5599 5594 5590 5585 5579 5573 5566 5560 5553 5545 5537 5528 5521 5513 5507 5503 5499 5496 5495 5495 5495 5496 5498 5500 5501 5502 5503 5503
5715 5714 5714 5712 5711 5710 5708 5706 5703 5700 5696 5691 5686 5682 5677 5672 5666 5659 5652 5644 5637 5632 5625 5618 5612 5607 5602 5598 5594 5588 5582 5576 5570 5564 5558 5552 5545 5538 5532 5525 5520 5515 5511 5508 5506 5505 5504 5504 5504 5505 5506 5506 5507 5506
5712 5712 5711 5710 5709 5708 5707 5705 5702 5699 5695 5689 5685 5681 5676 5671 5665 5659 5653 5645 5639 5633 5626 5619 5613 5609 5605 5602 5597 5591 5585 5581 5576 5570 5564 5559 5553 5548 5543 5538 5533 5528 5524 5521 5518 5516 5514 5513 5512 5512 5512 5512 5511 5511